Temp
20 21 20 19 20 19 19 19 18 18 18 18 17 17 17 17 16 17 16 17 17 17 17 16 16 16 16 16 16 16 16 16 16 17 17 17 18 18 18 17 17 18 20
20 20 19 19 19 20 19 19 18 18 17 17 17 17 17 17 16 16 16 16 17 17 17 16 16 16 16 16 16 16 17 17 16 16 17 18 18 17 18 18 18 18 19
21 20 20 20 19 19 19 18 18 18 18 17 17 17 16 16 16 16 16 16 16 16 16 15 16 15 16 16 17 17 17 17 17 16 17 17 17 17 17 18 18 18 18
20 20 20 19 19 19 19 19 19 18 18 17 17 16 16 16 15 15 15 15 15 16 16 15 15 15 16 16 16 16 16 16 17 16 17 17 17 17 16 17 17 18 17
21 20 19 19 19 19 19 18 18 17 17 16 16 16 16 16 14 14 14 14 15 15 15 15 14 15 15 15 15 16 16 16 16 16 16 17 17 17 17 17 17 17 18
20 20 19 19 19 18 18 17 17 17 17 16 16 15 15 14 14 14 14 13 13 13 13 14 14 14 14 14 15 15 15 16 16 16 16 16 17 17 17 17 17 17 18
20 19 19 18 18 18 18 18 17 16 16 15 15 15 14 14 14 14 13 13 13 13 13 13 13 13 13 14 15 15 15 15 15 15 15 15 16 16 16 16 17 17 17
19 19 18 18 17 16 17 17 16 16 15 15 14 13 13 13 13 13 13 13 13 13 13 12 12 13 13 13 13 14 14 15 15 15 14 14 15 16 16 16 16 17 17
18 18 19 19 18 16 16 16 15 15 15 13 13 12 12 12 12 12 13 13 13 13 13 13 12 11 11 11 12 13 13 14 14 14 15 15 15 15 15 15 16 16 16
19 18 19 19 19 16 16 15 15 14 13 12 12 12 11 12 12 12 12 12 13 13 13 13 13 12 12 12 12 12 12 13 13 14 14 15 16 16 16 16 16 16 16
18 18 18 16 17 17 15 14 13 12 12 12 12 11 11 11 11 11 11 12 11 11 10 10 10 10 11 12 12 12 12 12 12 12 13 14 14 16 16 16 16 16 16
18 17 17 18 16 15 13 12 12 12 13 13 12 11 11 11 12 11 11 10 10 9 8 8 8 7 8 9 11 11 11 12 12 13 13 13 13 14 15 15 16 16 16
17 18 17 15 14 13 12 12 13 13 13 12 12 11 11 11 10 10 10 10 9 9 8 7 7 7 7 8 9 10 10 11 11 11 11 12 12 13 13 14 15 16 16
18 17 16 14 14 13 13 13 12 12 11 11 11 11 10 10 10 10 9 9 9 8 7 6 6 7 8 8 8 10 9 9 9 9 10 11 11 12 13 14 14 15 14
16 15 14 13 13 12 12 12 12 11 11 11 11 11 10 10 10 9 8 8 8 8 8 8 7 6 6 6 7 8 8 9 9 9 9 9 10 11 12 12 13 13 14
14 14 14 13 13 12 12 12 11 11 11 11 10 10 10 10 10 9 9 8 9 8 8 7 6 4 3 3 3 4 6 7 7 7 8 7 8 9 9 10 11 12 13
14 13 13 13 13 12 12 12 12 11 11 11 10 10 10 10 10 10 9 8 9 9 8 7 6 5 2 3 3 2 3 4 4 4 5 6 7 7 8 9 10 10 11
13 13 13 12 12 12 12 12 12 12 11 11 11 11 11 11 10 10 9 9 9 9 9 7 6 5 3 2 2 2 2 2 2 2 3 4 6 6 7 7 9 9 9
13 13 12 12 12 12 12 12 12 12 11 11 11 11 11 11 11 10 10 9 9 9 9 8 7 6 4 2 2 2 2 2 2 2 2 2 3 4 5 6 7 8 9
13 13 12 12 12 12 12 12 12 12 12 12 12 11 11 11 11 11 10 10 10 10 9 8 7 6 5 3 2 2 2 2 2 1 1 2 2 3 3 4 5 5 6
13 13 13 13 12 12 12 12 12 12 12 12 12 11 11 11 11 11 11 10 10 10 9 9 8 7 6 5 4 3 2 2 2 2 2 2 2 3 4 4 4 5 5
13 13 13 13 13 13 13 12 12 12 12 12 12 12 12 12 11 11 11 10 10 10 9 8 8 7 6 5 5 4 3 3 2 2 2 3 3 4 4 4 5 5 4
12 11 12 13 13 13 13 13 13 13 12 12 12 12 12 12 11 11 11 10 10 10 9 8 8 7 7 6 6 5 4 3 3 2 3 3 4 4 4 5 5 5 5
12 13 13 13 14 14 13 13 13 13 13 12 12 12 12 12 12 11 11 10 10 9 8 8 7 7 6 6 6 5 5 5 4 3 3 4 4 5 4 4 4 4 5
12 13 13 14 14 14 13 13 13 13 13 13 12 12 12 12 11 10 10 10 9 9 8 7 7 6 6 6 6 5 5 5 5 4 4 4 5 5 5 5 4 4 4
12 12 12 13 13 13 13 13 13 13 13 13 12 12 12 11 10 10 10 9 9 8 8 7 7 6 6 6 6 6 6 6 5 5 5 4 5 5 5 5 5 4 3
Height
1528 1532 1534 1537 1538 1538 1539 1540 1540 1539 1537 1535 1534 1533 1530 1527 1524 1521 1519 1516 1513 1510 1508 1505 1504 1501 1500 1499 1499 1497 1497 1497 1494 1493 1493 1492 1491 1489 1492 1489 1490 1492 1490
1530 1532 1535 1537 1539 1540 1541 1541 1540 1538 1536 1534 1533 1531 1528 1526 1523 1521 1519 1516 1512 1509 1506 1504 1503 1501 1499 1497 1495 1495 1493 1492 1492 1490 1488 1487 1485 1482 1481 1482 1484 1485 1483
1531 1534 1536 1538 1540 1540 1542 1541 1541 1539 1537 1534 1531 1530 1528 1525 1522 1520 1517 1515 1511 1508 1505 1503 1501 1500 1498 1496 1494 1492 1491 1489 1488 1487 1484 1482 1481 1478 1476 1475 1476 1476 1476
1531 1534 1537 1538 1540 1541 1541 1542 1541 1538 1536 1533 1531 1529 1526 1524 1521 1518 1515 1512 1509 1506 1504 1501 1498 1497 1496 1495 1493 1491 1489 1488 1486 1483 1481 1479 1478 1478 1475 1473 1472 1471 1472
1529 1533 1535 1536 1537 1538 1539 1540 1540 1538 1534 1531 1529 1527 1523 1520 1518 1515 1511 1508 1505 1502 1500 1498 1496 1494 1493 1491 1488 1486 1485 1483 1482 1480 1479 1476 1474 1473 1473 1472 1469 1467 1466
1523 1528 1532 1534 1536 1536 1537 1537 1536 1535 1533 1530 1527 1522 1520 1517 1513 1510 1507 1505 1502 1500 1496 1494 1492 1490 1487 1486 1485 1483 1481 1479 1477 1476 1475 1473 1471 1469 1467 1466 1465 1463 1460
1521 1526 1529 1532 1535 1534 1533 1533 1532 1531 1530 1527 1524 1521 1516 1513 1510 1506 1504 1502 1499 1497 1494 1492 1490 1486 1483 1481 1479 1478 1476 1476 1475 1472 1470 1469 1465 1465 1464 1460 1459 1459 1458
1521 1521 1522 1528 1531 1534 1533 1532 1529 1527 1526 1524 1522 1518 1514 1511 1508 1506 1502 1500 1497 1494 1491 1488 1485 1481 1478 1475 1472 1471 1470 1470 1469 1468 1464 1463 1461 1459 1457 1455 1453 1453 1452
1518 1520 1523 1523 1527 1529 1530 1530 1527 1524 1521 1522 1519 1515 1513 1509 1506 1504 1499 1496 1493 1490 1487 1484 1481 1476 1472 1469 1466 1463 1461 1462 1462 1460 1458 1456 1454 1454 1452 1450 1448 1448 1446
1515 1520 1521 1522 1523 1527 1526 1527 1525 1519 1521 1520 1517 1515 1512 1508 1505 1501 1496 1490 1486 1484 1483 1478 1474 1470 1466 1465 1461 1457 1453 1453 1451 1448 1448 1447 1447 1446 1446 1444 1443 1442 1442
1515 1518 1520 1522 1522 1523 1524 1524 1521 1519 1518 1517 1517 1513 1512 1507 1503 1499 1494 1488 1484 1480 1476 1472 1469 1465 1460 1456 1454 1451 1448 1445 1443 1440 1439 1437 1438 1437 1438 1438 1437 1437 1436
1515 1518 1520 1520 1520 1521 1522 1520 1518 1518 1517 1516 1516 1515 1512 1508 1503 1497 1492 1488 1484 1479 1475 1470 1465 1460 1456 1452 1448 1445 1442 1440 1437 1434 1433 1432 1432 1430 1430 1430 1430 1430 1430
1516 1517 1517 1518 1518 1519 1518 1517 1517 1516 1515 1516 1516 1512 1509 1506 1502 1496 1491 1486 1482 1477 1474 1469 1463 1457 1452 1447 1444 1441 1438 1436 1434 1431 1429 1428 1426 1424 1424 1422 1423 1421 1422
1514 1515 1515 1516 1517 1518 1517 1517 1517 1517 1518 1517 1514 1511 1509 1506 1501 1496 1491 1485 1480 1475 1471 1465 1460 1456 1451 1446 1442 1439 1436 1434 1431 1428 1425 1423 1421 1420 1418 1417 1416 1415 1414
1512 1514 1515 1517 1517 1517 1517 1518 1519 1518 1517 1516 1513 1512 1509 1506 1501 1498 1493 1488 1483 1477 1471 1464 1457 1450 1444 1441 1438 1435 1432 1428 1425 1422 1420 1417 1416 1414 1412 1411 1411 1410 1407
1512 1514 1516 1516 1517 1517 1518 1517 1517 1516 1515 1513 1512 1512 1507 1504 1502 1498 1493 1489 1483 1476 1470 1463 1457 1452 1446 1440 1435 1431 1428 1424 1420 1417 1415 1414 1412 1410 1408 1407 1406 1404 1403
1511 1513 1514 1515 1516 1517 1517 1516 1515 1514 1514 1512 1511 1507 1503 1501 1497 1493 1490 1486 1480 1475 1469 1463 1458 1452 1446 1442 1436 1431 1426 1422 1417 1413 1409 1407 1407 1406 1404 1401 1400 1399 1398
1511 1513 1514 1514 1514 1514 1514 1514 1513 1512 1512 1510 1506 1504 1502 1499 1494 1490 1486 1482 1479 1474 1469 1463 1457 1452 1447 1441 1435 1430 1424 1419 1414 1409 1405 1402 1400 1399 1398 1397 1396 1394 1393
1510 1511 1512 1513 1514 1513 1513 1513 1512 1511 1509 1506 1503 1502 1500 1496 1492 1488 1485 1482 1477 1472 1467 1462 1457 1451 1446 1440 1434 1428 1422 1416 1411 1406 1401 1397 1394 1392 1391 1390 1389 1387 1385
1511 1511 1512 1513 1513 1513 1512 1511 1510 1509 1506 1504 1502 1499 1496 1494 1491 1488 1483 1478 1474 1469 1464 1459 1455 1449 1444 1439 1433 1427 1420 1413 1407 1402 1398 1394 1390 1387 1384 1382 1381 1379 1377
1509 1512 1515 1514 1513 1512 1510 1508 1507 1505 1504 1502 1500 1498 1495 1492 1488 1485 1480 1474 1471 1466 1461 1456 1452 1447 1441 1436 1430 1424 1417 1411 1405 1399 1394 1389 1385 1380 1378 1375 1372 1370 1368
1509 1508 1511 1512 1511 1510 1509 1507 1504 1502 1501 1499 1497 1495 1492 1489 1485 1481 1477 1473 1469 1462 1457 1452 1448 1443 1438 1433 1427 1421 1415 1408 1402 1396 1390 1384 1379 1374 1370 1367 1363 1360 1359
1505 1506 1508 1510 1507 1508 1507 1504 1502 1500 1499 1497 1495 1492 1489 1486 1482 1478 1474 1468 1463 1458 1453 1448 1443 1439 1435 1430 1425 1420 1414 1406 1399 1393 1385 1379 1373 1368 1363 1357 1353 1349 1348
1507 1506 1506 1504 1506 1506 1503 1501 1499 1498 1496 1495 1492 1489 1486 1483 1477 1473 1469 1464 1460 1455 1450 1445 1440 1435 1430 1426 1421 1416 1411 1404 1397 1389 1382 1374 1367 1360 1353 1345 1341 1338 1336
1504 1504 1503 1503 1503 1501 1500 1499 1497 1496 1494 1491 1489 1486 1483 1479 1474 1469 1464 1459 1456 1451 1446 1440 1435 1429 1425 1420 1416 1411 1406 1400 1394 1387 1378 1371 1362 1354 1345 1338 1332 1327 1325
1503 1503 1502 1501 1500 1499 1498 1497 1495 1493 1491 1489 1486 1483 1479 1475 1469 1465 1460 1455 1450 1444 1438 1433 1428 1423 1418 1413 1410 1406 1401 1396 1390 1384 1375 1367 1356 1345 1337 1329 1324 1320 1316
Wind_Speed
10 12 9 9 8 9 5 6 9 13 11 14 14 18 19 18 16 13 18 22 21 18 13 16 16 15 14 14 14 14 15 17 22 26 24 24 28 32 26 23 29 33 38
9 11 10 10 8 6 2 2 5 8 11 16 14 17 20 17 18 14 23 25 23 19 14 13 15 16 16 16 14 15 15 16 19 23 21 20 21 15 17 21 20 26 24
11 10 13 11 8 3 6 4 7 12 15 15 14 15 17 18 19 17 25 26 23 20 16 13 12 14 16 18 19 18 14 14 15 17 20 18 18 17 20 20 19 19 24
11 12 10 10 7 6 6 9 12 14 13 14 12 13 15 16 17 19 23 24 25 23 16 15 15 15 15 17 16 16 14 14 14 16 17 18 17 16 18 18 21 19 20
14 11 12 8 6 5 6 12 15 15 13 13 14 16 16 16 15 17 19 25 28 27 18 12 13 15 14 18 19 16 13 14 15 17 19 20 22 20 17 18 20 18 17
16 13 7 5 5 9 10 14 14 13 14 14 15 15 16 15 14 17 22 25 23 22 18 18 19 17 15 16 19 16 14 17 18 18 17 19 22 22 21 21 20 18 19
17 11 6 3 8 10 13 12 13 14 16 17 17 18 20 20 20 20 19 17 17 17 19 23 20 19 21 20 18 18 15 12 14 19 21 20 22 22 23 22 20 20 20
13 14 11 2 6 13 17 16 15 16 16 16 15 11 14 16 18 17 16 18 21 23 24 23 22 24 22 23 23 22 19 18 17 16 16 19 21 22 22 21 21 22 23
14 11 6 3 10 8 18 16 16 16 12 11 12 13 16 14 14 18 20 23 27 29 28 25 20 21 21 21 23 24 26 23 20 21 21 20 20 24 20 21 20 23 25
7 7 8 6 5 13 13 15 12 9 10 10 10 11 13 17 21 26 28 29 28 27 24 24 21 22 26 27 31 32 34 33 34 34 32 28 24 21 21 22 21 20 20
8 6 2 3 8 11 9 3 6 5 4 6 5 7 14 20 24 24 25 26 27 28 29 28 26 25 24 23 22 25 27 25 26 27 31 29 26 23 18 18 21 21 18
6 2 5 6 3 1 7 5 4 7 8 6 7 8 11 16 23 26 27 26 24 26 28 30 29 23 18 16 15 15 16 19 19 23 22 22 20 16 18 21 23 24 24
5 2 3 7 8 7 8 2 7 10 12 11 12 17 21 24 28 30 30 30 30 31 29 27 26 28 25 17 17 16 15 16 17 17 19 21 23 22 23 20 21 24 26
2 4 3 6 7 5 6 7 9 11 10 11 16 21 23 27 31 36 39 41 40 37 34 31 33 28 22 22 22 21 22 21 19 16 15 16 17 18 19 23 21 22 20
5 7 5 5 5 3 4 4 5 9 9 10 12 17 24 31 28 29 34 38 41 44 45 44 41 38 34 30 25 24 27 28 28 26 20 17 17 16 17 16 14 15 18
6 7 10 6 3 1 1 2 2 7 9 11 13 17 21 23 31 27 29 33 39 42 45 49 50 43 40 38 35 34 28 30 30 30 28 24 21 19 19 18 17 13 12
7 9 7 4 2 4 2 1 1 3 7 11 15 17 20 24 30 32 30 29 35 43 43 43 46 50 40 37 36 34 33 31 28 28 28 25 22 20 21 20 20 17 16
8 10 7 2 3 3 2 2 2 4 5 11 13 18 20 23 27 29 31 29 32 40 42 40 40 44 47 37 35 34 32 32 30 29 25 24 23 22 24 23 22 23 23
1 4 9 2 4 5 3 3 2 5 7 11 12 15 20 23 25 28 28 27 32 38 39 36 35 39 43 39 35 34 32 32 30 28 27 25 23 22 23 24 28 31 31
8 9 8 6 3 1 2 6 3 5 10 11 12 17 21 20 22 23 25 23 28 35 36 35 35 34 35 41 35 36 35 33 31 28 27 26 25 23 23 25 26 29 31
2 7 7 4 3 4 7 9 4 7 9 12 15 15 16 20 21 23 23 25 30 33 32 35 35 32 37 33 38 42 42 37 32 30 29 29 29 29 26 25 27 31 33
1 0 2 4 5 5 8 8 5 8 8 13 16 16 17 22 27 26 25 27 29 30 31 33 35 31 34 31 36 37 43 42 37 34 33 32 32 31 31 30 29 28 27
5 3 6 9 6 6 8 6 10 9 10 15 16 15 20 25 29 27 27 26 27 26 29 33 31 31 32 30 31 32 38 42 41 39 38 36 34 35 36 36 33 31 30
11 9 9 10 12 10 6 6 7 10 14 16 16 16 19 33 28 29 30 23 21 24 29 27 29 34 28 31 28 28 31 36 38 38 39 42 40 41 40 38 33 29 28
5 5 16 9 8 3 4 7 10 14 15 17 13 20 27 31 28 25 15 19 27 32 31 30 31 26 33 25 26 28 29 31 32 35 38 39 40 42 35 30 28 27 26
6 10 14 9 7 8 10 11 12 13 13 16 21 23 25 28 24 15 21 29 35 38 36 32 29 27 24 26 26 26 28 29 29 31 35 40 43 38 29 32 32 29 26
Wind_Direction
172 164 140 119 109 98 55 19 360 355 347 346 346 349 356 5 9 2 358 351 346 348 349 2 5 351 333 327 315 292 286 279 277 282 280 294 280 286 280 277 280 264 262
171 156 145 146 125 82 38 360 345 318 321 331 334 351 356 1 355 360 351 352 355 357 351 343 343 345 347 348 330 323 302 292 288 287 288 290 292 299 289 287 275 261 258
172 164 156 144 124 152 162 198 285 307 319 335 333 340 343 357 348 344 346 347 351 353 351 353 2 353 337 335 331 331 328 307 308 290 288 291 303 303 294 289 287 283 266
176 160 146 141 182 223 260 296 315 322 322 330 333 332 334 339 340 334 340 336 343 347 343 337 342 331 332 332 323 322 315 320 316 306 300 299 296 303 290 293 285 284 286
154 173 176 190 215 254 302 319 322 325 333 334 330 335 338 335 335 327 329 333 336 341 347 339 338 333 327 324 322 319 316 305 310 313 311 300 292 293 288 294 292 290 293
165 166 185 231 269 291 322 325 320 328 327 327 330 325 327 333 329 323 324 332 341 344 338 331 326 329 322 316 320 315 316 302 295 293 298 300 306 308 301 292 286 286 291
179 174 198 247 299 320 323 313 315 319 319 320 320 324 319 316 320 327 336 345 346 336 335 333 330 322 322 321 314 313 309 308 311 299 292 291 291 294 303 297 283 275 274
161 181 182 208 358 351 317 307 308 318 322 326 343 14 353 348 345 344 343 334 328 328 326 326 322 314 319 318 315 308 301 296 298 302 299 295 297 292 283 291 288 280 271
187 179 196 232 345 326 282 304 318 330 356 27 38 358 350 351 349 337 330 325 322 321 318 316 318 313 306 304 300 301 299 297 294 290 288 287 284 285 287 285 282 276 273
134 197 260 283 291 270 297 315 328 24 39 36 24 16 351 336 334 336 334 333 330 331 329 327 326 307 298 296 296 296 297 301 301 297 290 284 281 280 280 275 280 279 274
161 171 203 252 278 295 317 48 56 52 40 4 39 347 330 334 339 341 341 340 338 341 343 344 340 332 322 313 310 304 305 309 310 305 297 294 292 281 274 277 272 268 271
155 180 274 295 311 121 94 89 48 2 351 358 5 12 12 4 3 2 0 357 352 350 349 350 348 346 336 337 331 323 311 310 320 316 302 301 304 295 280 281 282 267 270
180 238 344 35 75 95 105 19 8 13 24 39 41 35 31 27 24 22 18 14 8 360 351 348 343 341 336 323 333 332 327 325 326 324 320 311 309 296 288 289 283 278 274
137 63 66 54 67 78 20 9 21 20 40 53 55 50 42 36 33 33 30 27 23 15 8 355 348 345 342 335 311 307 315 323 329 334 320 308 300 305 292 292 297 289 274
99 111 128 86 93 95 30 3 15 15 27 41 47 33 30 26 16 18 20 19 19 21 20 14 6 1 354 349 347 336 327 318 313 313 324 335 314 311 302 296 304 307 282
131 135 157 163 194 137 168 62 31 5 351 360 3 1 5 5 7 5 8 7 6 4 8 12 13 7 1 353 348 345 339 329 325 322 311 313 319 312 311 311 297 300 302
174 157 138 190 187 154 200 50 246 356 339 338 346 349 352 355 357 357 353 353 357 358 360 3 5 7 1 356 348 344 342 338 328 321 315 311 306 315 316 311 309 309 296
121 153 148 196 35 188 102 56 236 344 329 330 337 348 348 348 352 351 344 341 347 351 351 352 358 1 3 354 350 346 342 341 337 333 322 310 304 292 292 296 299 297 298
119 180 154 148 47 70 63 356 330 330 325 328 337 346 345 344 350 347 339 335 339 342 343 343 346 355 356 359 353 349 345 342 339 336 333 327 315 298 291 292 292 290 285
54 55 159 129 130 10 341 316 288 330 346 347 351 347 340 341 346 342 334 326 332 332 334 335 341 343 348 359 357 356 353 348 345 339 333 332 331 323 301 286 282 281 281
85 73 69 132 356 326 360 23 63 3 349 344 338 338 338 332 331 333 329 322 323 326 324 330 337 337 344 347 351 353 353 350 347 342 338 334 332 328 324 311 297 282 278
155 30 323 312 304 319 334 343 353 351 339 331 336 340 339 333 331 325 320 319 324 317 319 323 334 338 341 340 345 343 347 348 347 344 340 337 333 333 329 320 308 298 289
175 162 231 273 277 279 319 317 338 338 326 330 334 329 328 341 334 326 326 320 316 317 319 326 328 331 338 339 340 336 340 343 341 340 340 338 334 332 325 317 309 297 288
235 229 273 297 282 278 292 324 336 323 319 322 322 320 325 331 328 322 330 328 321 324 324 324 322 329 330 334 336 334 335 338 336 336 335 337 335 334 328 320 309 297 285
260 307 337 313 302 300 305 312 321 309 318 323 327 322 327 333 336 335 320 313 321 328 327 325 324 325 324 327 328 329 333 334 329 330 331 339 335 334 329 324 320 308 291
273 313 345 335 340 329 341 325 332 322 323 317 319 321 328 337 335 312 310 324 329 329 326 324 321 322 320 319 322 329 336 336 334 338 335 341 341 341 338 335 332 318 305